SCOUT X-4 R/B, 871

Orbit data source: Space-Track

SCOUT X-4 R/B, 871 is space debris in LEO originally from a launch on Tue, 25 Aug 1964 UTC launched from the Air Force Western Test Range (AFWTR). Debris objects in space refer to the collection of defunct objects orbiting the Earth. Examples of debris include non-operational satellites, rocket bodies, and fragments generated from explosions, collisions, or faulty payload assembly.

Loading next visibility...
Identifier
871, 1964-051B
Orbit
LEO
Country
Flag of USUS
Related business
Manufacturer
ABL
Mission
Spacecraft
Bus & Motor
ALTAIR, Unknown motor
Mass
33 kg wet, 33 kg dry
Launch date (UTC)
1964-08-25 (61 years ago)
Launch vehicle
Unknown
Launch site
Air Force Western Test Range (AFWTR)
Object type
Payload
Rocket body
Debris
Shape & HBR
Unknown
Radar Cross Section
Medium (>0.1 m² and <1 m²)

Expand to show TLE details & history
Last TLE update: 11 hours ago

TLE from 11 hours ago
0 SCOUT X-4 R/B
1 00871U 64051B   25292.23346090  .00000439  00000-0  28056-3 0  9999
2 00871  79.8946 334.0400 0087129  68.9461 292.0990 14.00545331111130
Epoch: 2025-10-19T05:36Z
TLE epoch observation values (Epoch: 2025-10-19T05:36:11.021Z)
Latitude
-0.00005°
Longitude
-137.95899°
Altitude
871.389 km
Speed
7.429 km/s
True Right ascension
22h 16m 09s
True Declination
0° 00' 00"
Sunlit
Object was in full shadow at epoch
Visualization orbit readout
Latitude
Unknown
Longitude
Unknown
Altitude
Unknown
Speed
Unknown
Apparent Right ascension
Unknown
Apparent Declination
Unknown
Sunlit
N/A
Visualization observer readout
Local Sidereal Time
11:09:05
Azimuth
Unknown
Elevation
Unknown
Doppler factor
Unknown
Orbital elements
Apogee altitude
952.482 km
Perigee altitude
825.844 km
Semi-major axis
7,267.3 km
Eccentricity
0.00871
Inclination
79.8946°
RAAN
334.04°
Arg. of periapsis
68.9461°
True anomaly
291.17016°
Mean anomaly
292.099°
Eccentric anomaly
291.63496°
Mean motion
3.50335 °/min
Orbital period
102.76 mins
BSTAR
0.00028056
Loading maneuver chart data...
Computing Atmospheric mass density...
Loading historical data...
Loading historical data...
Loading historical data...
Loading historical data...
Loading historical data...
Loading historical data...
Loading historical data...

Documentation

Showing up to 5 results
|